Simultaneous Nadir Overpasses (SNOs) Predictions

Prediction of SNOs between GOES-16 and TERRA Satellite Orbit:

Table of predicted SNOs for the next 14.0 days since TLE Epoch: 12/23/2023
Index Date Time (GOES-16) GOES-16 Lat,Lon TERRA Lat,Lon Distance(km) Time Diff (sec)
1 12/24/2023 14:52:08 -0.03, -75.23 -0.24, -74.18 118.48 80
2 12/25/2023 03:15:00 0.03, -75.20 -0.76, -79.10 442.31 80
3 12/27/2023 02:55:31 0.03, -75.21 0.09, -75.04 19.73 80
4 12/29/2023 02:38:41 0.03, -75.22 0.91, -70.97 482.39 80
5 12/29/2023 14:58:45 -0.03, -75.25 0.10, -75.85 68.60 80
6 12/31/2023 14:44:35 -0.02, -75.27 -0.75, -71.79 395.65 80
7 01/01/2024 03:04:47 0.02, -75.26 -0.31, -76.70 164.33 80
8 01/03/2024 02:45:17 0.02, -75.29 0.58, -72.64 300.99 80
9 01/03/2024 15:05:20 -0.02, -75.32 0.47, -77.51 249.61 80
10 01/05/2024 14:51:10 -0.02, -75.35 -0.45, -73.46 216.59 80
